Wind_Speed
50 45 46 48 48 47 46 44 42 39 37 35 32 31 31 31 33 37 40 42 42 42 41 41 40 37 37 35 33 31 31 31 31 33 32 32 34 34 35 34 33 35 37 37 39 41 43 46 48 47 43 46 48 48
38 41 42 46 46 44 45 44 43 40 38 36 34 33 30 29 31 33 35 37 39 40 41 42 41 41 40 38 35 35 36 32 35 35 34 36 37 36 35 37 37 39 39 40 41 44 44 49 51 51 49 49 47 50
38 39 40 45 50 46 41 45 44 42 39 37 35 34 33 31 30 31 34 35 35 35 38 40 40 39 40 41 39 37 37 37 37 35 37 39 39 37 37 37 39 41 43 44 47 47 49 53 53 51 51 50 51 53
38 39 40 43 41 44 49 41 45 43 41 39 36 35 34 33 33 30 30 32 33 33 35 36 36 36 38 39 38 37 37 38 38 38 39 39 39 40 40 41 43 40 44 45 47 46 51 52 51 53 51 50 52 56
35 32 38 36 37 37 38 45 41 43 42 41 39 36 34 33 32 32 33 32 32 32 33 32 33 33 35 37 37 37 36 38 38 39 39 40 41 41 43 44 44 40 44 45 45 49 49 49 51 50 50 53 56 56
32 35 37 36 37 34 41 36 38 40 42 41 39 38 37 36 34 33 33 33 32 32 32 32 32 32 35 36 36 36 36 37 37 37 40 43 41 43 46 47 43 40 38 42 47 46 47 52 50 50 53 56 56 55
44 39 33 34 36 32 36 38 34 38 39 39 39 38 37 36 35 34 33 32 32 32 33 34 34 35 35 36 35 35 36 36 38 40 42 41 41 45 47 46 40 40 42 47 45 45 49 50 50 53 57 56 55 55
45 42 40 37 34 32 31 35 40 37 35 36 38 38 37 35 34 33 32 31 32 33 34 36 36 34 33 34 36 35 35 36 39 40 42 41 42 44 48 42 43 42 43 46 46 47 50 52 54 57 57 55 56 60
48 47 44 41 38 37 35 33 34 38 37 37 32 33 36 37 36 35 34 33 33 35 37 36 36 36 35 34 35 35 36 38 41 42 41 44 46 48 43 43 44 45 45 45 47 49 50 51 57 59 57 59 63 66
45 46 44 41 40 38 38 37 37 37 35 34 36 35 35 35 36 37 36 35 35 36 39 38 38 39 38 38 39 40 40 42 44 44 46 48 48 43 41 44 46 46 46 48 52 50 51 54 57 59 62 66 68 71
35 45 46 45 44 42 40 39 39 38 38 35 34 32 29 29 34 36 36 34 34 34 34 32 32 34 35 37 38 40 42 43 45 46 48 47 43 37 40 43 46 48 50 50 49 51 56 59 60 62 64 67 70 71
32 34 41 46 46 44 40 42 42 40 39 36 35 34 33 32 32 36 34 33 33 33 35 35 32 32 37 39 41 41 43 44 44 45 47 47 45 44 45 47 49 49 48 49 52 57 60 63 63 64 66 68 69 65
30 35 37 40 39 45 44 43 40 39 41 40 37 37 36 36 37 38 37 36 36 35 35 35 36 33 33 35 38 40 44 46 47 48 49 49 48 49 52 52 52 52 53 55 58 62 65 65 64 65 68 67 62 62
20 29 33 38 40 42 43 44 45 42 41 39 39 38 40 41 43 41 41 42 43 40 39 40 40 41 41 41 42 45 50 54 56 56 53 51 52 55 58 58 57 57 59 61 64 65 64 63 65 65 61 61 62 65
10 12 20 30 38 42 43 43 45 45 46 46 46 45 46 45 45 44 44 44 45 45 46 48 47 48 48 48 50 54 55 55 54 55 56 58 60 63 64 61 60 60 62 61 60 60 62 61 59 59 62 64 67 70
10 9 9 10 15 27 39 46 46 44 44 45 46 45 46 49 50 49 48 46 45 48 49 51 53 55 55 54 52 51 50 51 56 59 60 61 60 55 52 52 54 54 55 57 58 56 56 58 60 62 65 67 67 66
13 12 12 13 13 13 14 18 25 36 43 43 43 42 42 45 48 52 55 52 47 43 42 45 47 47 49 50 49 51 51 52 53 50 45 43 42 45 48 51 52 52 52 52 55 57 61 63 63 62 62 63 63 62
17 16 16 16 15 15 16 16 18 19 21 25 32 41 48 48 47 47 47 49 51 51 46 41 37 36 37 40 43 46 49 47 45 44 46 46 46 46 48 50 53 55 57 56 57 57 57 58 58 59 58 58 57 59
23 23 23 22 22 21 21 21 21 21 22 24 27 28 28 29 35 41 44 44 43 41 35 35 39 39 38 38 39 40 41 43 44 45 47 50 51 50 50 50 52 53 54 53 54 55 55 54 54 55 55 56 57 55
29 29 29 29 28 28 28 27 27 27 27 28 30 31 32 31 31 32 33 33 35 38 41 42 44 45 48 50 50 49 51 50 48 46 42 44 45 46 49 50 50 51 51 51 51 51 51 51 52 54 55 56 56 55
35 36 36 36 35 35 34 33 34 33 33 32 32 32 32 33 32 32 32 31 32 30 31 29 27 26 27 26 28 29 32 34 37 39 41 44 46 47 48 49 49 48 48 48 50 50 51 53 53 53 53 53 55 56
43 42 42 42 41 40 40 38 36 34 33 32 31 30 28 26 26 25 24 23 23 23 23 23 23 24 26 27 31 33 35 39 41 42 42 41 42 43 44 46 47 48 48 49 50 53 53 54 53 53 53 54 55 60
50 49 47 45 43 41 38 35 32 30 28 26 25 22 24 21 21 21 21 21 22 22 22 22 25 29 32 35 37 40 43 41 40 40 41 43 44 45 45 46 47 49 50 51 55 56 55 54 54 54 54 55 57 59
52 49 46 41 38 35 32 29 26 23 21 19 18 19 21 22 21 19 18 19 19 22 25 28 31 34 37 40 41 39 39 41 44 46 45 44 44 44 46 48 51 54 56 57 57 57 54 54 54 53 53 52 52 50
34 33 34 32 35 32 29 25 21 19 18 19 20 19 19 19 20 21 23 24 25 27 30 33 36 38 40 41 42 43 44 44 44 45 46 46 48 49 50 53 55 57 59 60 57 54 53 52 51 50 50 49 48 45
19 21 21 21 21 27 27 27 28 24 25 24 21 21 22 24 24 24 23 26 29 29 34 37 39 41 43 46 46 44 43 45 46 48 50 52 52 53 55 57 57 56 57 56 54 52 51 51 50 50 49 48 47 44
10 9 8 11 11 15 20 19 27 32 27 28 30 29 21 17 18 23 28 30 33 35 38 42 44 45 45 47 49 48 48 49 49 49 51 52 53 55 55 54 54 53 53 53 52 52 52 52 52 52 51 49 47 45
5 6 4 5 9 12 14 16 23 28 26 19 13 16 20 23 28 31 33 35 38 41 43 45 46 45 45 47 48 47 47 49 52 53 54 54 52 53 54 55 55 54 54 54 55 56 56 57 56 54 53 51 48 46
9 7 12 16 16 15 14 12 11 11 14 17 21 24 28 30 33 36 39 42 44 45 45 46 48 49 50 50 49 49 51 52 52 53 53 55 56 57 57 57 58 58 58 58 60 61 60 59 58 57 54 51 49 46
10 12 12 11 10 11 13 15 18 21 23 26 28 31 33 37 40 42 43 44 45 47 48 49 50 52 52 53 53 53 51 51 51 51 52 54 56 56 56 56 57 57 57 57 57 57 58 58 58 57 53 51 50 46
10 11 12 14 16 18 20 22 25 28 30 33 36 38 41 42 43 43 44 46 48 50 50 49 48 48 48 48 49 51 52 52 52 53 53 54 54 54 54 54 54 54 55 57 58 59 58 58 57 55 52 49 47 45
17 18 20 21 24 26 29 31 34 36 38 40 41 42 43 44 45 46 45 45 46 47 48 49 50 51 51 51 51 51 51 52 52 51 51 51 49 48 47 48 50 52 55 57 56 54 52 49 47 45 44 43 42 41
23 25 27 29 30 32 34 36 37 37 38 39 39 38 38 40 39 41 42 44 46 48 50 52 53 53 53 52 51 50 49 49 48 47 44 43 42 43 45 47 49 49 51 52 51 48 44 40 38 36 35 35 36 35
Wind_Direction
183 187 189 187 188 190 191 191 194 193 193 196 197 198 202 205 209 214 218 220 223 226 228 232 237 242 244 248 250 251 252 251 250 251 252 252 254 256 260 263 269 273 279 286 292 298 302 303 305 307 309 306 310 312
184 190 190 186 187 192 196 197 197 197 198 199 202 204 206 209 213 216 219 222 224 226 229 232 236 239 242 245 245 248 249 249 252 252 254 253 256 258 262 267 271 276 281 288 295 297 301 302 302 307 307 308 308 312
190 193 196 195 191 193 197 201 202 201 202 204 205 207 210 214 218 220 222 224 224 227 231 234 238 240 243 247 246 246 250 251 254 256 254 255 258 260 264 268 273 278 285 290 293 298 302 298 304 304 303 305 310 311
199 200 206 201 200 199 201 201 205 204 205 207 208 211 214 215 219 224 228 228 229 231 235 236 239 243 245 248 251 250 252 253 254 255 257 258 262 262 266 271 275 285 290 293 295 298 296 299 300 301 304 306 309 311
194 198 202 194 196 199 202 202 208 208 209 211 212 214 216 219 223 225 230 234 235 237 241 243 245 248 250 251 252 254 257 258 260 260 261 263 265 270 269 273 281 292 290 291 294 293 292 294 295 298 300 305 309 309
196 197 198 201 211 212 201 203 208 210 213 215 217 219 221 223 225 227 231 234 238 243 244 246 247 251 253 255 257 259 262 265 267 268 268 268 274 277 276 278 288 291 291 290 291 292 292 291 295 298 302 306 307 306
186 193 202 202 209 208 204 203 206 209 213 215 219 221 224 228 230 233 235 238 241 244 247 249 249 250 255 259 262 265 267 269 269 269 271 276 279 280 281 285 290 291 289 288 291 291 290 291 292 297 301 303 305 305
188 190 199 205 207 208 208 210 208 207 214 217 220 222 225 228 231 234 237 242 246 249 250 252 253 254 256 260 262 264 267 268 269 273 273 276 278 280 280 289 287 288 288 290 291 290 292 293 295 298 300 303 303 304
190 199 205 202 198 196 202 205 207 211 216 218 222 227 230 230 233 238 242 245 248 252 254 255 257 259 257 258 261 265 268 271 272 275 277 278 279 283 287 287 286 287 289 289 287 289 292 296 298 298 298 300 302 304
187 192 198 198 196 201 206 209 217 219 218 221 224 227 229 233 238 243 246 249 251 253 256 259 263 266 267 267 268 270 272 272 273 273 275 276 279 285 288 287 289 290 290 289 290 288 294 300 302 299 298 300 302 304
213 195 196 197 198 200 205 209 211 212 215 218 220 223 227 237 244 243 247 250 254 255 258 261 270 273 272 274 276 274 274 275 273 273 274 276 278 280 289 291 292 289 286 285 285 287 292 297 300 300 300 300 301 303
224 229 215 205 206 207 211 213 213 218 223 227 230 232 237 243 243 245 248 251 256 257 257 266 275 276 275 277 278 275 272 273 275 278 279 278 276 281 290 294 293 292 290 288 288 292 294 297 298 297 297 299 302 303
218 224 230 235 238 225 220 222 225 224 224 228 236 239 240 246 249 247 247 253 259 264 265 268 272 271 274 275 275 274 273 274 278 284 287 284 282 283 286 289 290 290 291 292 292 292 293 294 293 295 298 301 301 303
211 221 223 225 231 236 242 244 240 245 240 245 241 241 242 243 246 250 253 255 257 258 260 263 264 267 271 275 274 277 281 282 283 284 286 283 280 282 286 288 291 292 291 290 289 288 289 292 297 299 300 301 304 308
202 211 214 219 223 228 230 235 242 242 243 243 241 240 244 244 244 246 249 252 256 259 261 263 264 265 268 272 271 275 281 282 283 282 284 286 288 290 290 288 287 285 282 282 285 290 294 296 297 299 302 304 305 305
214 218 220 218 221 227 229 230 233 235 238 242 242 243 241 240 241 243 246 250 253 255 257 260 265 269 272 275 276 276 276 277 278 282 285 284 280 276 272 272 276 279 283 287 290 292 294 297 300 302 302 302 301 301
212 216 227 234 237 237 237 241 243 243 243 242 243 245 246 246 248 248 246 246 249 253 256 258 261 265 266 268 273 276 271 269 267 265 264 260 264 271 278 283 285 287 289 293 296 298 299 299 299 299 298 298 301 306
235 232 230 231 236 244 250 253 255 253 252 250 250 249 247 248 250 253 258 263 266 267 267 268 268 269 266 263 262 261 259 259 260 265 272 277 280 282 284 287 292 296 298 297 297 297 296 296 295 298 301 303 306 307
242 242 243 244 246 248 251 257 261 264 265 265 263 262 261 260 259 260 260 263 264 265 266 259 258 257 259 263 264 266 269 272 275 279 285 290 295 299 301 299 298 296 295 294 294 294 296 299 301 302 304 306 307 308
249 249 250 250 253 256 259 260 263 264 265 267 270 270 270 270 269 269 271 271 271 273 275 275 271 267 266 274 281 286 288 292 296 298 298 297 296 296 295 295 293 292 292 293 296 297 297 300 302 303 305 307 308 311
252 254 256 258 260 261 263 265 267 268 267 267 267 266 266 267 268 269 270 273 276 278 279 284 284 284 282 281 282 280 283 286 293 297 296 295 293 292 291 291 292 294 295 296 297 298 300 301 303 303 304 305 310 310
255 255 257 259 261 263 264 265 266 266 266 267 267 267 264 261 265 269 269 268 267 274 279 281 280 280 281 286 290 294 298 301 304 303 298 295 294 295 297 297 296 295 296 297 298 301 303 305 304 306 307 310 311 311
257 257 259 260 260 260 259 257 256 257 258 260 261 257 248 246 254 264 271 273 275 277 275 276 281 289 296 299 301 306 311 308 299 296 297 298 299 297 296 296 297 297 298 300 303 304 306 305 305 307 307 308 310 309
255 255 255 254 251 249 248 242 244 243 244 248 249 253 257 259 261 261 261 264 273 276 281 287 294 301 306 310 312 306 300 296 296 297 296 296 295 295 296 297 298 299 301 301 303 304 303 303 304 304 306 308 310 311
245 237 234 227 239 236 233 224 218 233 232 242 245 248 256 259 261 264 269 275 276 284 291 296 302 306 307 307 303 299 296 293 293 293 294 294 296 297 297 298 298 298 299 299 300 299 300 301 302 304 306 308 311 310
199 194 210 213 211 213 215 223 227 237 241 240 239 252 265 268 268 267 271 274 281 287 294 297 298 298 301 302 299 297 295 294 294 294 295 295 297 297 297 296 296 296 296 297 297 298 300 301 303 305 306 307 307 306
159 135 164 197 205 213 223 238 239 239 242 244 251 250 248 262 279 281 280 286 289 292 293 294 296 298 300 298 296 294 292 292 293 293 293 294 295 296 296 297 298 297 296 296 297 298 299 300 302 303 303 303 302 301
134 145 184 205 209 220 220 237 234 234 235 238 251 263 269 275 276 279 282 285 286 288 289 292 293 293 294 293 293 293 293 293 293 294 295 297 298 298 300 300 300 300 300 299 299 299 300 300 300 299 298 298 297 296
199 198 205 198 200 205 213 222 241 255 260 262 262 266 271 278 282 282 284 285 287 288 291 293 292 292 292 292 291 292 295 296 296 296 296 299 301 302 303 303 302 302 301 300 300 299 299 298 297 295 295 293 291 290
218 218 226 233 240 245 253 261 264 266 268 271 276 279 280 280 282 283 286 288 291 291 293 294 294 294 294 294 294 296 297 297 297 297 297 298 299 300 300 301 301 301 300 300 299 298 297 295 293 291 290 288 287 285
275 270 266 266 267 268 270 271 272 274 276 277 278 280 282 285 287 289 290 290 290 291 293 293 294 295 297 297 298 298 298 299 299 300 300 301 302 303 304 304 305 306 306 306 304 301 297 293 289 286 283 281 279 278
269 270 271 272 273 275 275 277 278 280 283 285 287 288 288 288 288 288 289 290 291 292 293 294 296 297 298 298 298 298 299 300 300 302 302 303 305 306 308 309 310 311 314 314 312 308 304 299 294 288 281 276 274 273
277 278 279 280 280 282 285 287 287 288 287 287 288 288 288 289 289 290 290 292 293 294 295 296 296 296 296 297 298 299 300 300 302 303 304 306 308 309 310 312 313 315 320 322 320 316 312 306 299 292 284 275 272 273
Height
5562 5571 5581 5591 5602 5612 5620 5629 5638 5645 5653 5659 5666 5671 5677 5683 5688 5693 5699 5705 5710 5714 5719 5722 5726 5730 5733 5735 5738 5740 5741 5743 5745 5745 5747 5749 5748 5749 5749 5750 5750 5748 5746 5745 5743 5740 5739 5733 5729 5727 5724 5716 5711 5707
5563 5572 5580 5590 5600 5609 5618 5626 5634 5642 5649 5656 5662 5668 5674 5679 5684 5689 5694 5699 5703 5708 5712 5715 5717 5720 5724 5726 5731 5732 5732 5735 5735 5737 5739 5739 5740 5740 5742 5741 5741 5740 5738 5737 5736 5731 5727 5721 5717 5717 5711 5705 5701 5695
5563 5571 5579 5588 5597 5606 5614 5623 5631 5638 5646 5653 5659 5665 5670 5675 5680 5685 5688 5693 5697 5701 5704 5708 5710 5714 5715 5716 5721 5724 5725 5726 5728 5730 5730 5730 5731 5733 5733 5733 5731 5730 5727 5726 5722 5720 5716 5710 5708 5704 5700 5695 5689 5684
5561 5570 5579 5586 5594 5603 5612 5619 5627 5635 5642 5649 5655 5661 5666 5670 5675 5680 5684 5688 5691 5695 5697 5702 5703 5706 5708 5710 5712 5715 5716 5717 5719 5721 5721 5722 5723 5723 5724 5723 5722 5723 5718 5715 5712 5708 5702 5699 5695 5690 5686 5682 5677 5670
5560 5569 5577 5585 5593 5601 5607 5615 5623 5630 5637 5643 5650 5656 5661 5665 5670 5674 5677 5682 5685 5689 5692 5696 5698 5700 5702 5703 5704 5706 5708 5709 5710 5712 5714 5714 5713 5713 5713 5712 5714 5713 5707 5703 5701 5698 5694 5688 5683 5680 5675 5670 5664 5657
5562 5569 5575 5583 5591 5598 5605 5612 5619 5626 5632 5639 5645 5651 5656 5660 5664 5669 5672 5675 5679 5682 5686 5688 5692 5693 5694 5696 5697 5698 5699 5701 5703 5703 5703 5702 5703 5702 5702 5702 5705 5699 5695 5692 5689 5686 5681 5675 5671 5666 5661 5656 5650 5644
5559 5567 5574 5581 5589 5595 5601 5609 5615 5622 5628 5634 5640 5645 5650 5655 5659 5662 5667 5670 5672 5675 5678 5680 5683 5685 5686 5688 5691 5691 5692 5692 5692 5692 5693 5693 5692 5690 5691 5693 5692 5686 5682 5678 5676 5673 5667 5663 5659 5654 5649 5643 5636 5630
5556 5563 5570 5577 5584 5592 5598 5604 5611 5617 5624 5629 5634 5639 5644 5648 5652 5655 5659 5663 5665 5668 5670 5671 5675 5679 5680 5681 5681 5682 5682 5681 5682 5682 5682 5683 5682 5679 5679 5682 5677 5674 5670 5666 5663 5658 5654 5650 5646 5640 5635 5629 5623 5616
5553 5561 5567 5573 5579 5586 5593 5600 5606 5612 5618 5624 5629 5633 5637 5641 5645 5649 5653 5656 5658 5661 5661 5663 5666 5669 5671 5673 5673 5672 5672 5671 5672 5672 5672 5671 5670 5669 5670 5666 5663 5661 5659 5655 5650 5646 5642 5638 5632 5626 5622 5616 5609 5601
5551 5557 5564 5569 5575 5582 5588 5594 5601 5606 5612 5617 5622 5626 5630 5635 5639 5642 5644 5647 5649 5650 5651 5655 5658 5659 5663 5663 5663 5664 5662 5662 5661 5662 5659 5658 5658 5660 5657 5652 5650 5648 5645 5640 5635 5632 5629 5623 5617 5612 5607 5600 5593 5586
5546 5553 5560 5565 5571 5576 5582 5588 5594 5601 5605 5610 5615 5619 5625 5628 5630 5632 5635 5638 5641 5643 5645 5648 5650 5651 5652 5652 5653 5652 5650 5649 5648 5649 5646 5646 5648 5647 5644 5641 5637 5633 5629 5626 5623 5619 5614 5609 5604 5597 5591 5584 5578 5570
5540 5546 5554 5560 5566 5571 5577 5583 5589 5594 5599 5604 5608 5612 5616 5619 5621 5623 5627 5631 5633 5635 5637 5639 5642 5643 5641 5641 5639 5638 5638 5637 5636 5636 5634 5633 5634 5633 5630 5626 5622 5620 5616 5613 5610 5605 5599 5594 5588 5581 5574 5568 5561 5554
5535 5541 5546 5552 5558 5565 5570 5576 5581 5586 5591 5596 5600 5603 5607 5609 5610 5614 5619 5621 5623 5626 5628 5629 5630 5632 5631 5631 5628 5627 5625 5624 5624 5623 5621 5621 5620 5619 5615 5613 5609 5605 5601 5598 5594 5589 5583 5577 5571 5565 5559 5551 5544 5536
5529 5534 5539 5545 5550 5556 5562 5568 5573 5578 5583 5588 5591 5594 5596 5598 5600 5604 5608 5611 5613 5615 5617 5617 5619 5619 5619 5618 5618 5616 5613 5611 5609 5609 5609 5608 5606 5603 5601 5599 5595 5590 5586 5581 5577 5573 5567 5562 5556 5549 5542 5536 5529 5522
5525 5528 5532 5537 5542 5546 5552 5557 5562 5567 5572 5576 5580 5582 5586 5589 5592 5594 5597 5600 5601 5602 5603 5604 5605 5606 5606 5605 5605 5603 5600 5598 5596 5594 5593 5591 5589 5586 5583 5582 5578 5574 5570 5567 5563 5558 5552 5547 5541 5535 5527 5520 5513 5507
5523 5526 5529 5532 5535 5539 5543 5548 5552 5556 5560 5565 5568 5571 5574 5578 5580 5582 5585 5587 5589 5590 5591 5592 5592 5591 5591 5590 5589 5588 5587 5585 5582 5579 5578 5575 5571 5570 5568 5565 5563 5561 5557 5553 5548 5542 5537 5531 5526 5521 5513 5504 5496 5488
5523 5526 5528 5530 5532 5535 5537 5540 5544 5548 5551 5554 5557 5559 5562 5564 5566 5568 5571 5573 5575 5577 5578 5579 5579 5579 5579 5577 5576 5574 5572 5571 5569 5566 5565 5563 5561 5558 5556 5553 5549 5545 5541 5537 5532 5527 5522 5516 5510 5502 5496 5487 5479 5471
5519 5522 5524 5527 5529 5532 5534 5536 5539 5541 5543 5544 5547 5549 5551 5553 5555 5558 5559 5560 5562 5563 5565 5567 5567 5567 5566 5565 5564 5563 5561 5559 5557 5555 5554 5551 5548 5545 5541 5537 5533 5530 5525 5520 5516 5511 5505 5499 5491 5484 5477 5471 5466 5458
5515 5518 5520 5523 5525 5528 5530 5532 5535 5535 5537 5538 5539 5540 5542 5543 5544 5546 5548 5549 5551 5552 5554 5554 5555 5555 5555 5552 5551 5549 5547 5545 5543 5541 5538 5535 5532 5529 5524 5520 5516 5512 5508 5503 5498 5493 5487 5481 5474 5468 5462 5455 5449 5444
5508 5511 5513 5516 5518 5520 5523 5526 5527 5529 5530 5530 5531 5532 5533 5534 5535 5536 5537 5538 5538 5539 5539 5540 5541 5542 5541 5538 5535 5534 5532 5530 5528 5526 5523 5520 5518 5515 5511 5506 5501 5496 5491 5485 5481 5476 5471 5467 5461 5453 5447 5440 5433 5427
5500 5502 5504 5506 5508 5511 5513 5516 5517 5519 5520 5522 5522 5523 5524 5525 5526 5527 5528 5529 5530 5529 5530 5530 5530 5529 5528 5527 5525 5523 5522 5521 5518 5514 5511 5507 5502 5498 5494 5489 5485 5480 5475 5470 5466 5462 5456 5450 5446 5440 5432 5426 5419 5413
5489 5491 5493 5495 5498 5501 5503 5506 5508 5509 5510 5512 5513 5513 5514 5516 5517 5518 5519 5520 5520 5521 5522 5521 5520 5519 5518 5516 5514 5513 5511 5508 5503 5498 5494 5491 5487 5483 5479 5474 5469 5465 5461 5457 5450 5445 5441 5434 5428 5422 5416 5411 5404 5398
5475 5479 5481 5483 5486 5488 5493 5495 5498 5500 5502 5504 5505 5506 5508 5509 5510 5511 5512 5512 5513 5513 5512 5512 5510 5508 5507 5506 5504 5502 5498 5493 5487 5482 5479 5476 5473 5469 5465 5460 5454 5449 5446 5442 5435 5429 5424 5418 5412 5407 5401 5396 5390 5383
5459 5464 5467 5469 5472 5477 5483 5487 5489 5492 5495 5496 5498 5499 5501 5501 5502 5503 5504 5505 5506 5505 5504 5502 5500 5498 5495 5493 5491 5487 5483 5479 5474 5469 5465 5463 5459 5456 5450 5445 5439 5433 5429 5423 5420 5415 5409 5403 5398 5392 5387 5382 5375 5368
5446 5450 5455 5458 5463 5469 5475 5479 5482 5486 5489 5491 5492 5494 5495 5495 5496 5497 5497 5498 5496 5495 5494 5491 5489 5486 5481 5480 5477 5473 5469 5465 5460 5455 5450 5447 5444 5441 5436 5430 5424 5418 5413 5409 5404 5399 5394 5389 5384 5378 5373 5367 5361 5356
5440 5446 5452 5455 5460 5464 5469 5473 5477 5480 5483 5484 5486 5487 5488 5488 5488 5489 5490 5488 5487 5485 5482 5478 5476 5473 5468 5464 5460 5457 5454 5450 5446 5441 5436 5432 5429 5424 5419 5415 5410 5405 5397 5392 5388 5384 5379 5373 5369 5363 5358 5353 5348 5343
5444 5447 5452 5455 5459 5462 5466 5468 5472 5475 5476 5478 5479 5479 5479 5480 5481 5481 5479 5478 5475 5473 5469 5465 5461 5458 5455 5451 5448 5445 5440 5435 5432 5427 5422 5418 5414 5407 5402 5397 5392 5388 5382 5377 5372 5367 5363 5358 5353 5348 5343 5338 5334 5330
5446 5449 5451 5454 5457 5459 5462 5464 5467 5468 5470 5471 5472 5472 5473 5473 5472 5470 5467 5465 5463 5460 5457 5453 5448 5444 5440 5437 5434 5430 5426 5421 5417 5411 5405 5402 5397 5392 5386 5380 5374 5369 5364 5358 5354 5349 5344 5340 5336 5331 5326 5323 5319 5316
5448 5450 5452 5453 5455 5457 5459 5460 5462 5463 5464 5464 5465 5464 5464 5462 5460 5457 5455 5452 5448 5445 5442 5438 5435 5430 5426 5422 5419 5416 5411 5406 5402 5396 5391 5385 5380 5374 5368 5363 5357 5352 5347 5341 5335 5329 5325 5320 5315 5311 5308 5305 5302 5299
5448 5449 5451 5452 5453 5453 5455 5456 5456 5456 5456 5456 5455 5455 5453 5450 5448 5445 5441 5437 5433 5429 5426 5423 5419 5414 5410 5406 5401 5398 5395 5389 5385 5381 5376 5371 5365 5360 5354 5348 5342 5336 5330 5324 5318 5312 5305 5300 5295 5291 5289 5286 5282 5281
5446 5447 5448 5448 5448 5449 5449 5449 5448 5448 5447 5445 5444 5443 5441 5437 5433 5429 5426 5422 5419 5415 5411 5407 5404 5400 5396 5392 5388 5383 5378 5373 5369 5364 5359 5353 5348 5342 5336 5330 5324 5318 5311 5304 5298 5291 5285 5278 5273 5270 5269 5267 5265 5264
5442 5442 5442 5442 5442 5441 5441 5440 5438 5437 5435 5432 5430 5428 5425 5422 5419 5415 5411 5408 5404 5400 5396 5392 5388 5385 5381 5376 5372 5367 5363 5358 5353 5348 5343 5338 5332 5327 5321 5315 5309 5302 5294 5286 5277 5269 5262 5256 5252 5249 5248 5247 5247 5247
5435 5435 5434 5434 5433 5431 5429 5428 5426 5424 5422 5419 5417 5413 5410 5407 5405 5401 5397 5394 5390 5386 5382 5378 5373 5369 5365 5361 5356 5351 5347 5343 5338 5333 5329 5324 5319 5314 5309 5302 5296 5289 5281 5272 5262 5253 5246 5240 5236 5233 5232 5231 5232 5233